Zurück zum Katalog

COSMOS 839 DEB

AktivUNKNOWN
NORAD 10617·DEBRIS·🇷🇺 Russia

Gestartet Jul 8, 1976 von Plesetsk Cosmodrome

Loading…

Nächste Überflüge (nächste 24 Stunden)

TLE

AktuellSource: Space-Track

Epoche: Sep 14, 2026, 09:40 UTC

1 10617U 76067AR  26257.40284968 -.00000060  00000-0 -15347-4 0  9996
2 10617  65.6305 250.8248 0729963  94.1614  64.4376 12.36378561264950

Verfolge COSMOS 839 DEB in Echtzeit mit AllMySat

Download on the App Store